Regional Weather Roundup
Issued by NWS

Home | Current Version | Previous Version | Text Only | Print | Product List | Glossary On
Versions: 1 2 3 4 5 6 7 8 9 10 11 12 13 14 15 16 17 18 19 20 21 22 23 24 25 26 27 28 29 30 31 32 33 34 35 36 37 38 39 40 41 42 43 44 45 46 47 48 49 50
000
ASPQ40 PGUM 270410
RWRPQ
WEATHER ROUNDUP FOR THE MARIANAS AND MICRONESIA
NATIONAL WEATHER SERVICE TIYAN GU
200 PM CHST MON APR 27 2015

GUZ001>004-270500-
MARIANA ISLANDS-

CITY           SKY/WX    TMP DP  RH WIND       PRES   REMARKS
GUAM AIRPORT   CLOUDY    81  79  94 SE9       29.86F
ANDERSEN AFB   CLOUDY    79  77  94 SE15      29.86F
ROTA AIRPORT   NOT AVBL
TINIAN AP      NOT AVBL
SAIPAN AP      PTSUNNY   86  75  70 E16       29.86F HX  95

$$

PMZ161-270500-
REPUBLIC OF PALAU-

CITY           SKY/WX    TMP DP  RH WIND       PRES   REMARKS
KOROR AP       PTSUNNY   90  79  70 W12G20    29.79F HX 105
KOROR WSO      NOT AVBL

$$

PMZ171>174-270500-
FEDERATED STATES OF MICRONESIA-

CITY           SKY/WX    TMP DP  RH WIND       PRES   REMARKS
YAP AIRPORT    PTSUNNY   82  79  89 E12       29.77F HX  93
CHUUK AP       NOT AVBL
POHNPEI AP     NOT AVBL
POHNPEI WSO    NOT AVBL
KOSRAE AP      LGT RAIN  79  75  89 SE3       29.74F

$$

PMZ181-270500-
REPUBLIC OF THE MARSHALL ISLANDS-

CITY           SKY/WX    TMP DP  RH WIND       PRES   REMARKS
KWAJALEIN AP   TSTM      79  77  94 NE16      29.79S
MAJURO AP      CLOUDY    86  77  74 E9        29.76S HX  97
MAJURO WSO     PTSUNNY   86  77  74 E9        29.76  HX  97

$$




USA.gov is the U.S. government's official web portal to all federal, state and local government web resources and services.